TimePST,TemperatureF,Dew PointF,Humidity,Sea Level PressureIn,VisibilityMPH,Wind Direction,Wind SpeedMPH,Gust SpeedMPH,PrecipitationIn,Events,Conditions,WindDirDegrees,DateUTC
12:55 AM,19.9,17.1,89,30.39,9.0,Calm,Calm,-,N/A,,Overcast,0,2013-01-22 08:55:00
1:55 AM,19.9,17.1,89,30.40,9.0,Calm,Calm,-,N/A,,Overcast,0,2013-01-22 09:55:00
2:55 AM,19.9,17.1,89,30.39,8.0,Calm,Calm,-,N/A,,Overcast,0,2013-01-22 10:55:00
3:55 AM,19.0,17.1,92,30.39,6.0,WSW,3.5,-,N/A,,Overcast,240,2013-01-22 11:55:00
4:55 AM,19.0,16.0,88,30.38,9.0,West,4.6,-,N/A,,Overcast,260,2013-01-22 12:55:00
5:55 AM,19.0,16.0,88,30.38,9.0,Calm,Calm,-,N/A,,Overcast,0,2013-01-22 13:55:00
6:55 AM,19.0,16.0,88,30.37,9.0,Calm,Calm,-,N/A,,Overcast,0,2013-01-22 14:55:00
7:55 AM,19.0,16.0,88,30.38,10.0,Calm,Calm,-,0.00,,Overcast,0,2013-01-22 15:55:00
8:55 AM,19.0,15.1,85,30.39,10.0,West,4.6,-,0.00,,Overcast,270,2013-01-22 16:55:00
9:55 AM,19.9,15.1,81,30.38,10.0,West,4.6,-,N/A,,Overcast,270,2013-01-22 17:55:00
10:55 AM,19.0,17.1,92,30.39,10.0,Calm,Calm,-,N/A,,Overcast,0,2013-01-22 18:55:00
11:55 AM,19.9,16.0,85,30.37,10.0,Calm,Calm,-,N/A,,Overcast,0,2013-01-22 19:55:00
12:55 PM,19.9,17.1,89,30.34,10.0,Calm,Calm,-,N/A,,Overcast,0,2013-01-22 20:55:00
1:15 PM,19.4,15.8,86,30.27,10.0,Calm,Calm,-,N/A,,Overcast,0,2013-01-22 21:15:00
1:55 PM,21.0,16.0,81,30.32,10.0,Calm,Calm,-,N/A,,Overcast,0,2013-01-22 21:55:00
2:55 PM,21.9,16.0,78,30.32,10.0,Calm,Calm,-,N/A,,Overcast,0,2013-01-22 22:55:00
3:55 PM,21.9,16.0,78,30.30,10.0,Calm,Calm,-,N/A,,Overcast,0,2013-01-22 23:55:00
4:55 PM,21.9,16.0,78,30.30,10.0,Calm,Calm,-,N/A,,Overcast,0,2013-01-23 00:55:00
5:55 PM,21.0,15.1,78,30.29,10.0,Calm,Calm,-,N/A,,Mostly Cloudy,0,2013-01-23 01:55:00
6:55 PM,21.0,16.0,81,30.28,10.0,Calm,Calm,-,N/A,,Overcast,0,2013-01-23 02:55:00
7:55 PM,21.0,15.1,78,30.27,10.0,Calm,Calm,-,N/A,,Overcast,0,2013-01-23 03:55:00
8:55 PM,21.0,16.0,81,30.27,10.0,Calm,Calm,-,N/A,,Overcast,0,2013-01-23 04:55:00
9:55 PM,21.0,16.0,81,30.27,10.0,Calm,Calm,-,N/A,,Overcast,0,2013-01-23 05:55:00
10:55 PM,21.0,16.0,81,30.25,10.0,Calm,Calm,-,N/A,,Partly Cloudy,0,2013-01-23 06:55:00
11:55 PM,21.0,17.1,85,30.24,10.0,Calm,Calm,-,N/A,,Clear,0,2013-01-23 07:55:00